Location: Ch�ze
(42.9000°N, 0.0333°W)
Time: 23:04:48
(UTC+00:00)

ERS-2 - Pass Details

Date: 24 January 2021
Orbit: 492 x 497 km, 98.6° (Epoch: 24 February)

Event Time Altitude Azimuth Distance (km) Brightness Sun altitude
Exits shadow 17:50:07 - 31° (NNE) 2,073 4.8 -8.9°
Reaches altitude 10° 17:51:09 10° 38° (NE) 1,694 4.3 -9.1°
Maximum altitude 17:54:17 27° 97° (E) 979 3.1 -9.6°
Drops below altitude 10° 17:57:23 10° 157° (SSE) 1,680 4.7 -10.2°
Sets 17:59:40 0° 170° (S) 2,556 5.8 -10.6°
